Martha's Vineyard, MA

11:00 AM EDT on April 23, 2017 (GMT -0400)
Martha's Vineyard

Weather History for KMVY - January, 2014

Change the Weather History Date:

Wednesday, January 22, 2014

  Actual Average Record
Temperature  
Mean Temperature 19 °F -  
Max Temperature 26 °F 38 °F 54 °F (1951)
Min Temperature 10 °F 19 °F -2 °F (1961)
Degree Days  
Heating Degree Days 46    
Moisture  
Dew Point 12 °F    
Average Humidity 72    
Maximum Humidity 86    
Minimum Humidity 43    
Precipitation  
Precipitation 0.00 in - - ()
Sea Level Pressure  
Sea Level Pressure 29.63 in    
Wind  
Wind Speed 21 mph (North)    
Max Wind Speed 30 mph    
Max Gust Speed 41 mph    
Visibility 3 miles    
Events Fog , Snow    
Averages and records for this station are not official NWS values.
T = Trace of Precipitation, MM = Missing Value Source: NWS Daily Summary

Daily Weather History Graph

Daily Weather History Graph

Search for Another Location

Airport or City:

Trip Planner

Search our weather history database for the weather conditions in past years. The results will help you decide how hot, cold, wet, or windy it might be!

Date:

Astronomy

Jan. 22, 2014 Rise Set
Actual Time 7:02 AM EST 4:46 PM EST
Civil Twilight 6:32 AM EST 5:16 PM EST
Nautical Twilight 5:58 AM EST 5:49 PM EST
Astronomical Twilight 5:25 AM EST 6:22 PM EST
Moon 11:20 PM EST (1/22) 9:57 AM EST (1/22)
Length of Visible Light 10h 43m
Length of Day
9h 43m
Waning Gibbous, 65% of the Moon is Illuminated
Jan 22
Waning Gibbous
Jan 24
Last Quarter
Jan 30
New
Feb 6
First Quarter
Feb 14
Full

Hourly Weather History & Observations

Time (EST) Temp. Windchill Dew Point Humidity Pressure Visibility Wind Dir Wind Speed Gust Speed Precip Events Conditions
12:17 AM 26.6 °F 13.1 °F 19.4 °F 74% 29.70 in 2.0 mi NNE 19.6 mph 32.2 mph 0.00 in Snow Light Snow
12:29 AM 24.8 °F 11.5 °F 19.4 °F 80% 29.70 in 4.0 mi NNE 17.3 mph 27.6 mph 0.00 in Snow Light Snow
12:53 AM 25.0 °F 12.2 °F 19.0 °F 78% 29.70 in 5.0 mi NNE 16.1 mph 33.4 mph 0.00 in Snow Light Snow
1:53 AM 26.1 °F 12.0 °F 19.9 °F 78% 29.66 in 3.0 mi NNE 20.7 mph 33.4 mph 0.00 in Snow Light Snow
2:01 AM 24.8 °F 9.0 °F 19.4 °F 80% 29.65 in 2.0 mi NNE 25.3 mph 34.5 mph 0.00 in Snow Light Snow
2:53 AM 25.0 °F 9.2 °F 19.9 °F 81% 29.64 in 3.0 mi NNE 25.3 mph 34.5 mph 0.00 in Snow Light Snow
3:26 AM 24.8 °F 9.3 °F 19.4 °F 80% 29.61 in 2.0 mi NNE 24.2 mph 41.4 mph 0.00 in Snow Light Snow
3:42 AM 24.8 °F 9.6 °F 19.4 °F 80% 29.59 in 1.8 mi NNE 23.0 mph 39.1 mph 0.00 in Snow Light Snow
3:53 AM 25.0 °F 8.1 °F 19.0 °F 78% 29.60 in 1.0 mi NNE 29.9 mph 40.3 mph 0.00 in Snow Light Snow
3:58 AM 24.8 °F 9.3 °F 19.4 °F 80% 29.60 in 0.8 mi NNE 24.2 mph 40.3 mph 0.00 in Snow Light Snow
4:18 AM 24.8 °F 10.7 °F 19.4 °F 80% 29.61 in 0.8 mi North 19.6 mph 32.2 mph 0.00 in Snow Light Snow
4:53 AM 24.1 °F 9.0 °F 19.9 °F 84% 29.60 in 0.8 mi North 21.9 mph 38.0 mph 0.00 in Snow Light Snow
5:53 AM 23.0 °F 6.6 °F 19.0 °F 85% 29.58 in 0.8 mi NNE 25.3 mph 36.8 mph 0.00 in   Mist
6:31 AM 23.0 °F 9.2 °F 17.6 °F 80% 29.60 in 1.0 mi North 17.3 mph 34.5 mph N/A   Haze
6:53 AM 21.9 °F 6.5 °F 18.0 °F 85% 29.60 in 1.0 mi North 20.7 mph 31.1 mph N/A   Mist
7:08 AM 21.2 °F 5.2 °F 17.6 °F 86% 29.58 in 0.8 mi North 21.9 mph 35.7 mph N/A   Mist
7:19 AM 21.2 °F 4.9 °F 17.6 °F 86% 29.57 in 0.8 mi North 23.0 mph 36.8 mph N/A   Mist
7:43 AM 21.2 °F 3.5 °F 17.6 °F 86% 29.55 in 0.8 mi North 27.6 mph 36.8 mph N/A   Mist
7:53 AM 21.0 °F 3.6 °F 17.1 °F 85% 29.56 in 0.5 mi North 26.5 mph 41.4 mph N/A Fog Light Freezing Fog
8:14 AM 21.2 °F 3.5 °F 15.8 °F 80% 29.55 in 0.8 mi North 27.6 mph 36.8 mph N/A   Haze
8:37 AM 21.2 °F 3.9 °F 15.8 °F 80% 29.56 in 1.2 mi North 26.5 mph 35.7 mph N/A   Haze
8:53 AM 21.0 °F 5.0 °F 15.1 °F 78% 29.56 in 1.0 mi North 21.9 mph 35.7 mph N/A   Haze
9:09 AM 21.2 °F 6.0 °F 15.8 °F 80% 29.55 in 0.8 mi North 19.6 mph 40.3 mph N/A   Haze
9:25 AM 19.4 °F 2.1 °F 14.0 °F 80% 29.55 in 0.5 mi North 24.2 mph 33.4 mph N/A   Haze
9:53 AM 18.0 °F 0.9 °F 12.9 °F 81% 29.54 in 0.5 mi North 21.9 mph 32.2 mph N/A   Haze
10:53 AM 17.1 °F 0.1 °F 12.0 °F 81% 29.54 in 0.5 mi North 20.7 mph 34.5 mph 0.00 in Snow Snow
11:16 AM 15.8 °F -3.4 °F 10.4 °F 79% 29.52 in 0.5 mi North 26.5 mph 35.7 mph 0.00 in Snow Snow
11:53 AM 16.0 °F -2.1 °F 10.0 °F 77% 29.53 in 0.8 mi NNW 23.0 mph 34.5 mph 0.00 in Snow Snow
12:23 PM 15.8 °F -2.7 °F 8.6 °F 73% 29.54 in 1.0 mi NNW 24.2 mph 33.4 mph 0.00 in Snow Snow
12:53 PM 16.0 °F -2.8 °F 9.0 °F 74% 29.56 in 1.5 mi NNW 25.3 mph 34.5 mph 0.00 in Snow Snow
1:13 PM 17.6 °F 0.5 °F 8.6 °F 68% 29.57 in 2.5 mi NNW 21.9 mph 32.2 mph 0.00 in Snow Snow
1:53 PM 17.1 °F -0.6 °F 8.1 °F 68% 29.61 in 2.5 mi NNW 23.0 mph 38.0 mph 0.00 in Snow Light Snow
1:59 PM 17.6 °F 1.7 °F 8.6 °F 68% 29.60 in 4.0 mi NNW 18.4 mph 28.8 mph 0.00 in Snow Light Snow
2:53 PM 17.1 °F 1.5 °F 5.0 °F 59% 29.65 in 9.0 mi NNW 17.3 mph 25.3 mph 0.00 in Snow Light Snow
3:53 PM 18.0 °F 2.6 °F 3.9 °F 54% 29.68 in 9.0 mi NNW 17.3 mph 20.7 mph 0.00 in Snow Light Snow
4:53 PM 17.1 °F 5.8 °F 1.0 °F 50% 29.71 in 10.0 mi NW 9.2 mph - 0.00 in   Clear
5:53 PM 17.1 °F 3.0 °F -2.0 °F 43% 29.74 in 10.0 mi NNW 13.8 mph 20.7 mph N/A   Clear
6:53 PM 17.1 °F 3.6 °F -2.0 °F 43% 29.77 in 10.0 mi NW 12.7 mph 20.7 mph N/A   Clear
7:53 PM 16.0 °F 3.6 °F -2.0 °F 45% 29.81 in 10.0 mi NW 10.4 mph - N/A   Clear
8:53 PM 14.0 °F 3.9 °F -2.0 °F 49% 29.83 in 10.0 mi NW 6.9 mph - N/A   Clear
9:53 PM 12.9 °F -0.9 °F -2.9 °F 49% 29.85 in 10.0 mi NW 11.5 mph - N/A   Clear
10:53 PM 12.9 °F -0.2 °F -2.9 °F 49% 29.86 in 10.0 mi NNW 10.4 mph - N/A   Clear
11:53 PM 10.9 °F -2.6 °F -2.9 °F 54% 29.88 in 10.0 mi NNW 10.4 mph - N/A   Clear